DateTimeUTC,F1_A11,F1_S11,BsB_S11,BsG_S11,BsR_S11,BbsB_S11,BbsG_S11,BbsR_S11,BaB_A11,BaG_A11,BaR_A11,Tu_S11,T_S11,Uu_S11,U_S11,P_S11,T1_A11
2021-02-03T15:00:00Z,00000200,01000000,,,,,,,-000.03,0000.08,-000.20,17.8,24.0,,00.0,0617.6,31.2
2021-02-03T15:01:00Z,00000200,41000000,,,,,,,0000.10,-000.49,0000.35,17.8,24.1,,00.0,0617.7,31.1
2021-02-03T15:02:00Z,00000200,61000000,,,,,,,0000.17,0000.37,-000.33,17.9,24.1,,00.0,0617.7,31.1
2021-02-03T15:03:00Z,00000200,21000000,,,,,,,0000.01,0000.14,0000.01,18.0,24.2,,00.0,0617.7,31.1
2021-02-03T15:04:00Z,00000200,21000000,,,,,,,-000.02,0000.28,0000.34,18.0,24.2,,00.0,0617.8,31.1
2021-02-03T15:05:00Z,00000200,21000000,,,,,,,-000.21,-000.59,-000.06,18.0,24.2,,00.0,0617.8,31.1
2021-02-03T15:06:00Z,00000200,21000000,,,,,,,0000.37,0000.18,0000.01,18.0,24.3,,00.0,0617.8,31.1
2021-02-03T15:07:00Z,00000200,61000000,,,,,,,0000.01,0000.34,0000.02,18.0,24.3,,00.0,0617.8,31.1
2021-02-03T15:08:00Z,00000200,41000000,0000.08,0000.18,0000.40,0000.26,0000.03,0000.24,-000.04,-000.27,0000.31,18.2,24.3,,00.0,0618.5,31.1
2021-02-03T15:09:00Z,00000200,01000000,0000.57,-000.06,0000.26,-000.45,-000.08,0000.03,0000.45,0000.04,-000.29,18.4,24.3,,00.0,0618.9,31.1
2021-02-03T15:10:00Z,00000200,01000000,0000.03,-000.06,0000.31,-000.49,0000.14,0000.05,-000.72,-000.32,-000.23,18.4,24.4,,00.0,0619.0,31.1
2021-02-03T15:11:00Z,00000200,01000000,0000.40,0000.02,0000.11,-000.57,-000.09,0000.10,0000.73,0000.40,0000.43,18.3,24.3,,00.0,0619.1,31.1
2021-02-03T15:12:00Z,00000200,01000000,0000.62,0000.19,0000.14,-001.20,-000.17,0000.37,0000.11,0000.13,0000.01,18.3,24.3,,00.0,0619.1,31.1
2021-02-03T15:13:00Z,00000200,01000000,-000.40,0000.12,0000.35,-000.50,0000.10,0000.11,0000.71,0000.62,0000.87,18.2,24.3,,00.0,0619.2,31.1
2021-02-03T15:14:00Z,00000200,01000000,0000.44,-000.03,0000.03,0000.07,0000.01,-000.05,-000.09,0000.03,-000.33,18.1,24.3,,00.0,0619.2,31.0
2021-02-03T15:15:00Z,00000200,01000000,0000.51,0000.09,0000.00,0000.05,-000.17,0000.36,0000.04,0000.26,0000.36,18.0,24.3,,00.0,0619.3,31.0
2021-02-03T15:16:00Z,00000200,01000000,0000.84,-000.07,-000.16,-000.07,-000.01,0000.09,0000.05,-000.17,-000.46,18.0,24.2,,00.0,0619.4,31.0
2021-02-03T15:17:00Z,00000200,01000000,0000.20,0000.05,-000.02,-000.54,-000.26,0000.06,0000.65,-000.05,0000.29,18.0,24.2,,00.0,0619.4,31.0
2021-02-03T15:18:00Z,00000200,01000000,-000.06,0000.18,-000.39,-000.59,-000.34,0000.01,-000.52,0000.13,-000.10,18.0,24.2,,00.0,0619.4,31.0
2021-02-03T15:19:00Z,00000200,01000000,0000.58,0000.14,0000.01,-000.56,0000.00,0000.03,-000.44,-000.42,-000.24,18.0,24.2,,00.0,0619.4,31.0
2021-02-03T15:20:00Z,00000200,01000000,0000.28,0000.11,0000.05,-000.30,-000.23,0000.27,0000.30,-000.13,-000.25,17.9,24.2,,00.0,0619.4,31.0
2021-02-03T15:21:00Z,00000200,01000000,0000.63,-000.10,-000.12,-000.37,0000.17,-000.16,0000.26,0000.35,0000.30,17.9,24.2,,00.0,0619.4,30.9
2021-02-03T15:22:00Z,00000200,01000000,0000.74,0000.04,0000.01,-000.38,-000.00,0000.08,0000.19,0000.01,0000.32,17.8,24.1,,00.0,0619.4,30.9
2021-02-03T15:23:00Z,00000200,01000000,0000.80,-000.16,-000.29,-000.18,-000.11,-000.27,0000.04,0000.34,-000.05,17.7,24.1,,00.0,0619.3,30.9
2021-02-03T15:24:00Z,00000200,01000000,0000.53,-000.00,0000.06,-000.50,0000.05,-000.17,0000.15,0000.17,0000.26,17.6,24.0,,00.0,0619.3,30.9
2021-02-03T15:25:00Z,00000200,01000000,0000.51,-000.03,0000.23,0000.29,0000.06,-000.05,-000.21,0000.01,-000.32,17.5,24.0,,00.0,0619.3,30.9
2021-02-03T15:26:00Z,00000200,01000000,0000.07,0000.17,0000.05,-000.88,0000.09,-000.08,0000.16,0000.06,-000.09,17.4,24.0,,00.0,0619.3,30.9
2021-02-03T15:27:00Z,00000200,01000000,0000.50,0000.24,-000.09,-000.30,0000.05,-000.01,-000.04,0000.08,0000.05,17.3,23.9,,00.0,0619.3,30.9
2021-02-03T15:28:00Z,00000200,01000000,0000.20,0000.08,-000.09,-000.65,-000.11,0000.06,0000.07,-000.51,0000.19,17.3,23.9,,00.0,0619.3,30.9
2021-02-03T15:29:00Z,00000200,01000000,-000.56,-000.09,0000.05,-000.42,0000.13,0000.24,0000.55,0000.94,0000.22,17.2,23.8,,00.0,0619.3,30.9
2021-02-03T15:30:00Z,00000200,01000000,0000.44,-000.15,0000.03,-000.21,0000.13,0000.09,0000.08,-000.25,-000.08,17.1,23.8,,00.0,0619.3,30.9
2021-02-03T15:31:00Z,00000200,01000000,0000.36,0000.06,-000.00,0000.34,-000.07,-000.09,-000.04,0000.05,0000.11,17.0,23.8,,00.0,0619.2,30.9
2021-02-03T15:32:00Z,00000200,01000000,-000.09,0000.17,0000.15,-000.96,-000.05,0000.35,-000.08,-000.01,-000.03,17.0,23.7,,00.0,0619.3,30.9
2021-02-03T15:33:00Z,00000200,01000000,0000.25,0000.13,0000.40,-000.64,0000.14,0000.48,0000.02,-000.06,0000.18,16.9,23.7,,00.0,0619.3,30.9
2021-02-03T15:34:00Z,00000200,01000000,0000.32,0000.11,0000.17,-000.42,-000.12,0000.05,0000.53,0000.13,-000.12,16.8,23.6,,00.0,0619.3,30.9
2021-02-03T15:35:00Z,00000200,01000000,0000.35,0000.19,0000.30,-000.85,-000.13,0000.06,-000.14,0000.13,0000.03,16.8,23.6,,00.0,0619.3,30.9
2021-02-03T15:36:00Z,00000200,01000000,0000.71,0000.13,-000.07,0000.10,0000.13,-000.05,0000.22,0000.52,0000.05,16.7,23.5,,00.0,0619.3,30.9
2021-02-03T15:37:00Z,00000200,01000000,0000.33,0000.32,-000.11,-000.10,0000.15,0000.12,0000.11,-000.40,0000.48,16.7,23.5,,00.0,0619.3,30.9
2021-02-03T15:38:00Z,00000200,01000000,0000.75,0000.52,0000.23,-000.06,-000.01,0000.01,-000.20,0000.06,-000.24,16.6,23.5,,00.0,0619.3,30.9
2021-02-03T15:39:00Z,00000200,01000000,0000.20,-000.01,0000.27,-000.35,0000.16,0000.04,0000.49,0000.13,0000.17,16.6,23.4,,00.0,0619.3,30.9
2021-02-03T15:40:00Z,00000200,01000000,0000.56,0000.44,0000.14,-000.28,0000.08,-000.09,0000.09,0000.46,0000.02,16.5,23.4,,00.0,0619.3,30.8
2021-02-03T15:41:00Z,00000200,01000000,0000.45,0000.33,-000.08,0000.18,-000.13,0000.21,0000.03,-000.01,0000.10,16.5,23.3,,00.0,0619.4,30.8
2021-02-03T15:42:00Z,00000200,01000000,0001.13,0000.06,0000.38,-000.47,-000.15,0000.16,0000.15,-000.15,0000.12,16.4,23.3,,00.0,0619.5,30.8
2021-02-03T15:43:00Z,00000200,01000000,0000.59,0000.16,-000.16,-000.50,-000.12,0000.09,0000.02,0000.14,0000.02,16.3,23.2,,00.0,0619.5,30.8
2021-02-03T15:44:00Z,00000200,01000000,-000.17,0000.18,-000.00,-000.21,0000.02,0000.02,-000.27,-000.04,-000.28,16.3,23.2,,00.0,0619.5,30.8
2021-02-03T15:45:00Z,00000200,01000000,0000.58,0000.17,0000.35,-000.28,0000.17,0000.03,0000.12,-000.39,-000.14,16.3,23.2,,00.0,0619.6,30.8
2021-02-03T15:46:00Z,00000200,01000000,0000.74,0000.03,0000.00,-000.79,-000.09,0000.05,-000.34,-000.25,0000.35,16.2,23.1,,00.0,0619.7,30.8
2021-02-03T15:47:00Z,00000200,01000000,0000.34,0000.31,0000.04,-000.39,-000.14,-000.23,0000.48,0000.29,-000.06,16.2,23.1,,00.0,0619.7,30.8
2021-02-03T15:48:00Z,00000200,01000000,0000.64,0000.09,0000.03,-000.55,-000.06,0000.19,0000.19,0000.33,0000.07,16.3,23.1,,00.0,0619.7,30.8
2021-02-03T15:49:00Z,00000200,01000000,0000.97,0000.30,0000.02,-000.24,-000.11,-000.19,0000.20,0000.33,0000.02,16.4,23.2,,00.0,0619.7,30.9
2021-02-03T15:50:00Z,00000200,01000000,0000.07,-000.04,0000.18,-000.93,-000.17,0000.04,-000.13,0000.15,0000.45,16.4,23.2,,00.0,0619.7,30.9
2021-02-03T15:51:00Z,00000200,01000000,0000.91,0000.05,0000.39,-000.43,-000.03,0000.22,0000.01,-000.25,-000.27,16.5,23.2,,00.0,0619.8,30.9
2021-02-03T15:52:00Z,00000200,01000000,0000.24,0000.14,0000.29,-000.47,-000.17,0000.38,0000.23,-000.08,0000.08,16.6,23.2,,00.0,0619.8,30.9
2021-02-03T15:53:00Z,00000200,01000000,0000.16,-000.04,0000.17,-000.12,-000.01,0000.22,-000.34,0000.15,0000.49,16.7,23.3,,00.0,0619.9,30.9
2021-02-03T15:54:00Z,00000200,01000000,-000.28,0000.14,0000.05,-000.28,-000.14,-000.04,0000.11,0000.13,-000.25,16.7,23.3,,00.0,0619.9,30.9
2021-02-03T15:55:00Z,00000200,01000000,0000.67,0000.19,0000.03,0000.56,0000.30,0000.05,0000.03,-000.03,0000.31,16.8,23.3,,00.0,0619.9,30.9
2021-02-03T15:56:00Z,00000200,01000000,0001.36,0000.19,0000.21,-000.02,-000.03,-000.03,0000.16,0000.10,-000.53,16.8,23.3,,00.0,0619.9,30.9
2021-02-03T15:57:00Z,00000200,41000000,,,,,,,-000.38,-000.61,-000.45,16.8,23.3,,00.0,0619.9,30.9
2021-02-03T15:58:00Z,00000200,61000000,,,,,,,0000.15,-000.01,0000.34,16.3,23.4,,00.0,0619.1,30.9
2021-02-03T15:59:00Z,00000200,21000000,,,,,,,-000.06,0000.28,0000.19,16.2,23.5,,00.0,0619.1,30.9
